User: anonymous   Login
Location: Newark
(58.8333°N, 23.5833°E)
Time: 14:26:29
(UTC+00:00)
Language:

Vanguard 1 - Orbit

View from above orbital plane
View from above orbital plane
View from above satellite
View from above satellite

Ground track
Ground track

The orbit data is extracted from the following two-line orbital elements,

1     5U 58002B   19320.83295282  .00000057  00000-0  92032-4 0  9996
2     5  34.2403 166.3762 1843710 111.0861 269.6113 10.84784984182154
Epoch (UTC): 16 November 2019 19:59:27
Eccentricity: 0.1843710
inclination: 34.2403°
perigee height: 652 km
apogee height: 3831 km
right ascension of ascending node: 166.3762°
argument of perigee: 111.0861°
revolutions per day: 10.84784984
mean anomaly at epoch: 269.6113°
orbit number at epoch: 18215

The dashed part of the orbit path shows where the satellite is in the earth's shadow,  

DLR